Regional Weather Roundup
Issued by NWS Wakefield, VA

Home | Current Version | Previous Version | Text Only | Print | Product List | Glossary On
Versions: 1 2 3 4 5 6 7 8 9 10 11 12 13 14 15 16 17 18 19 20 21 22 23 24 25 26 27 28 29 30 31 32 33 34 35 36 37 38 39 40 41 42 43 44 45 46 47 48 49 50
366
ASUS41 KAKQ 240915
RWRAKQ

REGIONAL WEATHER ROUNDUP
NATIONAL WEATHER SERVICE WAKEFIELD VA
500 AM EDT TUE APR 24 2018

Note: "fair" indicates few or no clouds below 12,000 feet with no
significant weather and/or obstructions to visibility. * = Denotes
station may not report precipitation (e.g., rain,snow,etc.),
thunder or fog.

VAZ042-051-052>054-056-241000-
NORTHERN VIRGINIA

CITY           SKY/WX    TMP DP  RH WIND       PRES   REMARKS
WASH NATIONAL  CLOUDY    55  39  54 E9        30.31S
DULLES         CLOUDY    53  39  59 SE8       30.29F
FORT BELVOIR   NOT AVBL
QUANTICO       CLOUDY    56  43  61 E6        30.29F
FREDERICKSBRG* CLOUDY    55  45  68 E6        30.27S
STAFFORD*      CLOUDY    55  44  65 E7        30.31F
WARRENTON      CLOUDY    55  39  55 E3        30.28S
CULPEPER*      CLOUDY    55  41  59 CALM      30.28F
MANASSAS*      MOCLDY    54  40  59 CALM      30.29F
LEESBURG*      CLOUDY    55  41  58 E5        30.30F
WINCHESTER     CLOUDY    50  36  57 SE7       30.29F
FRONT ROYAL*   CLOUDY    52  37  58 CALM      30.26F
LURAY*         RAIN      54  41  62 E8G16     30.25F
$$

VAZ048-049-060>072-079>083-241000-
CENTRAL AND SOUTH CENTRAL VIRGINIA

CITY           SKY/WX    TMP DP  RH WIND       PRES   REMARKS
RICHMOND       CLOUDY    55  46  71 NE10      30.22F
CHESTERFIELD*  CLOUDY    55  44  66 E7        30.21F
PETERSBURG*    MOCLDY    55  45  68 E6        30.21F
HANOVER        CLOUDY    54  44  69 NE7       30.24F
TAPPAHANNOCK*  MOCLDY    56  46  68 NE5       30.26F
QUINTON*       CLOUDY    54  45  72 NE7       30.23F
CHARLOTTSVILLE CLOUDY    54  41  61 NE8       30.24F
GORDONSVILLE*  CLOUDY    50  47  87 NE5       30.24F
ORANGE*        RAIN      50  45  81 CALM      30.26F
LOUISA*        CLOUDY    53  42  67 E6        30.28F
BUMPASS*       CLOUDY    50  46  84 CALM      30.24F
FARMVILLE*     RAIN     N/A N/A N/A N6        30.19F
CREWE*         CLOUDY    52  51  95 NE3       30.18F
FORT PICKETT*  CLOUDY    54  47  76 NE9       30.18F
CHASE CITY*    CLOUDY    50  50 100 NE6       30.14F
CLARKSVILLE*   CLOUDY    50  50 100 NE7       30.13F
SOUTH HILL*    CLOUDY    51  50  98 NE3       30.20F
LAWRENCEVILLE* CLOUDY    54  47  78 NE6       30.16F
EMPORIA*       RAIN      55  48  76 E8        30.19S
$$

VAZ088>098-241000-
SOUTHEAST VIRGINIA

CITY           SKY/WX    TMP DP  RH WIND       PRES   REMARKS
NORFOLK        FAIR      59  50  72 E10       30.21F
VIRGINIA BEACH CLOUDY    56  51  84 E15       30.21F
NORFOLK NAVAL  MOCLDY    58  49  72 E8        30.23F
WEST POINT*    CLOUDY    56  46  71 E6        30.26F
SALUDA*        CLOUDY    55  52  89 E7        30.25F
NEWPORT NEWS   FAIR      57  49  74 E13       30.23F
LANGLEY AFB    NOT AVBL
FORT EUSTIS    NOT AVBL
WILLIAMSBURG*  FAIR      57  48  72 E6        30.23F
HR EXEC AP*    FAIR      58  50  75 E8        30.21F
FRANKLIN*      DRIZZLE   57  49  75 E12       30.19F
US460-WAKEFLD  CLOUDY    56  49  77 E8        30.20F
$$

VAZ020-022-025-037-045-241000-
WEST CENTRAL AND SOUTHWEST VIRGINIA

CITY           SKY/WX    TMP DP  RH WIND       PRES   REMARKS
STAUNTON*      LGT RAIN  49  44  82 CALM      30.25S
WAYNESBORO*    CLOUDY    51  43  73 E6        30.22F
HOT SPRINGS VA DRZL/FOG  41  41 100 E14G21    30.15F VSB<1/4
LYNCHBURG      RAIN      49  46  90 NE14      30.17F
DANVILLE       RAIN      50  50 100 E8G20     30.12S
SOUTH BOSTON*  CLOUDY    51  49  95 NE9       30.14F
MARTINSVILLE   RAIN      50  48  94 NE7       30.12F
ROANOKE        LGT RAIN  51  47  86 E9G22     30.16F
BLACKSBURG     LGT RAIN  47  46  95 E21G26    30.14R
DUBLIN*        LGT RAIN  48  47  96 E15G22    30.09F
MARION*        LGT RAIN  48  48  99 E14G21    30.06F
HILLSVILLE*    RAIN      46  46  97 E13G25    30.04S
RICHLANDS*     CLOUDY    50  17  27 E5G23     29.99F
WISE*          FAIR      52  45  76 SE6G22    29.95F
ABINGDON*      MOCLDY    54  47  80 E12       29.96F
$$

MDZ021>025-VAZ099-100-241000-
SOUTHERN MARYLAND AND THE DELMARVA PENINSULA

CITY           SKY/WX    TMP DP  RH WIND       PRES   REMARKS
PATUXENT RIVER MOCLDY    56  46  69 SE8       30.29F
BAY BRIDGE APT FAIR      52  37  58 E6        30.32F
LEONARDTOWN    MOCLDY    54  43  66 E6        30.30F
DOVER          NOT AVBL
GEORGETOWN     FAIR      51  42  71 E9        30.34F
EASTON         FAIR      51  36  56 SE6       30.35F
CAMBRIDGE      CLOUDY    50  39  66 E7        30.31F
SALISBURY      FAIR      50  43  77 E7        30.31F
TANGIER        NOT AVBL
OCEAN CITY     FAIR      51  47  86 MISG      30.33F
WALLOPS ISLAND FAIR      56  46  69 E14       30.30F
ACCOMACK*      FAIR      55  47  76 SE9       30.28F
$$

NCZ012>017-030>032-241000-
NORTH CENTRAL AND EASTERN NORTH CAROLINA

CITY           SKY/WX    TMP DP  RH WIND       PRES   REMARKS
ROANOKE RAPIDS LGT RAIN  54  52  94 E5        30.14F
RALEIGH        LGT RAIN  54  53  97 E9        30.08F
ELIZABETH CITY LGT RAIN  61  54  77 E13       30.19F
AHOSKIE*       RAIN      55  52  90 NE3       30.16F
EDENTON*       DRIZZLE   62  56  83 E10       30.17F
CURRITUCK*     NOT AVBL
KILL DEVIL HLS LGT RAIN  56  50  80 E9        30.19F
MANTEO         CLOUDY    60  52  74 SE13G20   30.20F
CAPE HATTERAS  LGT RAIN  65  60  84 SE23G35   30.16F
TARBORO*       NOT AVBL
GOLDSBORO      LGT RAIN  59  57  94 E10       30.05F
WASHINGTON     RAIN      61  59  94 E8        30.12F
GREENVILLE     RAIN      59  57  94 E6        30.13F
NEW BERN       LGT RAIN  60  60 100 SE9       30.11F FOG
WILMINGTON     HVY RAIN  63  61  93 E12G25    30.03F FOG
$$

VAZ048-241000-
ELSEWHERE

CITY           SKY/WX    TMP DP  RH WIND       PRES   REMARKS
HARRISBURG PA  CLOUDY    45  34  65 E6        30.33S
BALTIMORE      MOCLDY    51  39  63 E8        30.31F
ANNAPOLIS      MOCLDY    56  43  61 E7        30.31F
ANDREWS AFB    MOCLDY    52  39  61 E7        30.29F
PHILADELPHIA   MOCLDY    43  34  70 E5        30.38S
HENDERSON NC   RAIN      49  48  95 NE9       30.11F
GREENSBORO     CLOUDY    52  52 100 E14G22    30.04F
ROCKY MOUNT    LGT RAIN  57  55  93 NE8       30.10F FOG
$$

VAZ100-241000-
MARINE

STATION/POSITION TIME  TEMP    WIND        PRES    WAVE   SWELL
                       AIR SEA DIR/SP/G            HT/PER HT/PER
                 (UTC) (F)     (DEG/KT/KT) (MB)    (FT/S) (FT/S)
BRANDYWINE LGT   0842   52     120/ 18/ 20 1027.6F
CAPE MAY NJ      0848   51 52  110/ 11/ 14 1027.2F
LEWES DE         0842   52 51  120/ 11/ 13 1027.1F
15NM E FENWICK I 0850   49 48   90/ 14/ 16 1027.4F   2/ 4   2/ 8
OCEAN-CITY-INLET 0848   52 51  120/ 12/ 16 1027.4F
WACHAPREAGUE VA  0848   54 56  100/ 13/ 16 1025.6F
THOMAS POINT MD  0900   53 52  100/ 13/ 14 1027.2F
GOOSES REEF MD   0900   54     140/ 12/ 14 1026.3
COVE POINT MD    0848   54     160/  7/ 11 1026.3F
SOLOMONS ISLAND  0848   54 54  100/ 12/ 15 1025.3F
BISHOPS HEAD MD  0848   54 56   90/ 13/ 16 1026.2S
PINEY POINT MD   0848          130/ 13/ 15   N/A
POTOMAC MD       0900   55 54  110/ 14/ 17 1026.4    2/ 3
CAMBRIDGE MD     0848   52 55              1027.2F
LEWISETTA VA     0848   54 56  120/ 12/ 13 1025.1F
RAPPAHANNOCK LGT 0848           90/ 17/ 21 1025.2F
STINGRAY PT      0900   55 55  130/ 14/ 16 1025.6    2/ 3
YORK RVR RNG VA  0848   57     120/ 19/ 23 1024.3F
YORKTOWN VA      0848   57 56  120/ 14/ 18 1023.5F
DOMINION TERM VA 0848   56      40/  1/  4 1023.5F
KIPTOPEKE VA     0842      54  110/ 13/ 19   N/A
CAPE HENRY VA    0848   55     100/ 18/ 20   N/A
WILLOUBY STN VA  0848   56      90/ 14/ 16 1023.2F
S CRANEY ISL VA  0848   58     100/ 10/ 11 1023.1F
CAPE HENRY BUOY  0900      51                N/A     4/ 7
1ST LANDING BUOY 0900   55 53  120/ 17/ 19 1023.3    3/ 3
64NM E OF VA BCH 0850   55 50  110/ 16/ 17 1024.7F   6/ 7
DUCK PIER NC     0848   56 54  100/ 18/ 20 1022.2F
44100 DUCK FRF   0845      51                N/A     5/ 7
44056 DUCK FRF   0900      53                N/A     5/ 7   2/14
OREGON INLET NC  0842   57 58   90/  9/ 13 1022.2F
HATTERAS NC      0842   65 62  120/ 17/ 24 1020.7F
DIAMOND SHLS NC  0900   69     120/ 25/ 33 1021.0
CAPE LOOKOUT NC  0900          110/ 24/ 28 1019.1F
$$




USA.gov is the U.S. government's official web portal to all federal, state and local government web resources and services.